[[{"header":{"parameterUnit":"m.s-1","parameterCategory":1,"la1":30.2991,"la2":30.254,"lo1":-89.0895,"lo2":-89.0444,"dy":0.0017,"dx":0.0017,"nx":28,"ny":28,"refTime":"2023-08-14T03:00:00:Z","depth":0,"parameterNumber":2,"parameterNumberName":"U-component_of_WINDS"},"data":[0,0,0,0,0,0,0,0,0,0,0,0,0,0,0,0,0,0,0,0,0,0,0,0,0,0,0,0,0,0,0,0,0,0,0,0,0,0,0,0,0,0,0,0,0,0,0,0,0,0,0,0,0,0,0,0,0,0,1.9997,1.9998,0,2.0095,2.0096,2.0097,2.0106,2.0105,2.0104,2.0103,2.021,2.0214,2.0218,0,0,0,0,0,0,0,0,0,0,0,0,0,1.9826,1.9829,1.9997,1.9998,1.9999,2.0094,2.0096,2.0097,2.0106,2.0105,2.0104,2.0103,2.0209,2.0214,2.0218,0,0,0,0,0,0,0,0,0,0,0,0,0,1.991,1.983,1.9997,2.0015,2.0018,2.0094,2.0096,2.0098,2.0107,2.0105,2.0103,2.0102,2.0208,2.0213,2.0219,2.0286,0,0,2.0236,2.0239,0,0,0,0,0,0,0,0,1.9905,1.9916,2.0011,2.0014,2.0017,2.0086,2.0075,2.0161,2.0107,2.0073,2.0103,2.0101,2.0171,2.018,2.0202,2.0291,2.0295,2.0237,2.024,2.0243,2.0245,0,0,0,0,0,0,0,1.9899,1.9912,2.0036,2.0013,2.0016,2.0021,2.0031,2.0091,2.013,2.0076,2.0077,2.0088,2.0172,2.0196,2.0204,2.0297,2.0237,2.0242,2.0245,2.0248,2.0449,2.045,0,0,0,0,0,0,1.9889,1.9907,2.0033,2.0039,1.9956,2.0025,2.0037,2.0066,2.0129,2.0137,2.0089,2.0088,2.0187,2.0197,2.0208,2.0291,2.0243,2.0248,2.0252,2.0447,2.0449,2.0451,0,0,0,0,0,0,1.9885,1.99,2.0029,1.9973,1.999,2.003,2.0063,2.0069,2.0092,2.0139,2.0147,2.0106,2.0186,2.02,2.0266,2.0295,2.0251,2.0256,2.0444,2.0447,2.045,2.0458,0,0,0,0,0,0,1.988,1.9898,1.9922,1.9973,1.9993,2.0083,2.0064,2.0072,2.0101,2.0101,2.0157,2.0164,2.0186,2.0258,2.0272,2.0302,2.0261,2.0442,2.0446,2.0449,2.0455,2.0461,2.0465,0,0,0,0,0,1.9874,1.9922,1.9923,1.9938,2.0023,2.0084,2.0096,2.0117,2.0103,2.0129,2.016,2.0163,2.029,2.0264,2.0281,2.0313,2.044,2.0445,2.0449,2.0453,2.046,2.0465,0,0,0,0,0,0,1.9875,1.9929,1.9931,1.9996,2.0035,2.0086,2.0118,2.0123,2.0169,2.0167,2.0194,2.0207,2.0273,2.03,2.027,2.0382,2.0364,2.0372,2.0362,2.0368,2.0373,2.0365,2.0265,0,0,0,0,0,1.9882,1.9925,1.9971,2.0024,2.0044,2.0078,2.0105,2.0119,2.0161,2.0179,2.0214,2.0257,2.0307,2.0339,2.0388,2.046,2.0473,2.049,2.0495,2.0499,2.0505,2.0547,2.0556,2.0465,2.0465,2.0465,0,0,1.9898,1.9933,1.9959,2.0025,2.0057,2.0104,2.0092,2.0141,2.0177,2.0187,2.0251,2.0279,2.033,2.0399,2.0432,2.0424,2.0534,2.0505,2.0507,2.0512,2.0552,2.0561,2.0568,2.0468,2.0467,2.0467,0,0,1.9952,1.9982,2.003,2.0062,2.011,2.0132,2.0144,2.0194,2.0212,2.0277,2.0286,2.0331,2.0415,2.0451,2.0481,2.055,2.0555,2.0565,2.0591,2.0631,2.0639,2.0645,2.067,2.0679,2.0571,2.0571,2.0571,0,1.9966,2.0034,2.0054,2.0103,2.0133,2.0143,2.0194,2.0225,2.0288,2.0309,2.0299,2.0407,2.0441,2.052,2.0537,2.056,2.0576,2.0558,2.0635,2.0642,2.0649,2.0673,2.0683,2.0572,2.0572,2.0572,2.0572,0,2.005,2.0098,2.0131,2.0189,2.0223,2.0273,2.0303,2.0336,2.0347,2.0371,2.0439,2.0481,2.0538,2.0558,2.057,2.064,2.0633,2.0629,2.0611,2.0658,2.0681,2.0691,2.0574,2.0573,2.0573,2.0573,0,0,2.0105,2.0174,2.0186,2.0213,2.0268,2.0306,2.0358,2.0412,2.044,2.0484,2.0529,2.0601,2.0598,2.0631,2.0648,2.0683,2.0737,2.0675,2.0677,2.0685,2.0817,2.0819,2.083,2.0741,2.0743,2.0744,2.0813,0,2.0164,2.0253,2.0274,2.0352,2.0397,2.0408,2.0454,2.0494,2.0519,2.0563,2.0592,2.0643,2.0634,2.0654,2.069,2.0722,2.0763,2.0718,2.0785,2.0787,2.0771,2.0842,2.0844,2.0907,2.0822,2.0824,2.0825,0,2.0245,2.0288,2.0369,2.0419,2.0439,2.0479,2.0532,2.0573,2.062,2.0636,2.0674,2.0687,2.0744,2.0724,2.0804,2.0773,2.0802,2.0822,2.0825,2.0832,2.0808,2.0851,2.0927,2.0936,2.0839,2.0838,2.0837,0,2.0277,2.0356,2.0415,2.0438,2.0498,2.0526,2.0553,2.0598,2.063,2.0677,2.0698,2.0752,2.0782,2.0824,2.0853,2.0836,2.0932,2.0913,2.0948,2.0947,2.0967,2.0965,2.1049,2.0986,2.0986,2.0986,2.0986,0,2.0341,2.039,2.043,2.0467,2.0523,2.0549,2.0605,2.0633,2.0673,2.0717,2.0732,2.0773,2.0808,2.0856,2.0879,2.0942,2.0956,2.0972,2.0977,2.097,2.0968,2.0989,2.0985,2.0988,2.0988,2.0987,2.0987,0,2.0385,2.0414,2.0479,2.0531,2.0545,2.0585,2.063,2.0667,2.0693,2.0749,2.0763,2.0805,2.0861,2.0894,2.0966,2.0982,2.1052,2.1056,2.1035,2.1038,2.107,2.1067,2.1171,2.1186,2.1113,2.1114,2.1114,0,2.0424,2.0462,2.0517,2.0546,2.0573,2.062,2.0653,2.0681,2.0714,2.0772,2.0803,2.0859,2.0906,2.0996,2.1034,2.109,2.1095,2.1128,2.1104,2.1095,2.1096,2.1093,2.1097,2.1132,2.1132,2.1133,2.1133,0,2.0489,2.0502,2.0546,2.0597,2.0635,2.0677,2.0718,2.0742,2.0778,2.0815,2.0872,2.0908,2.0981,2.1038,2.1097,2.1127,2.1137,2.1141,2.1152,2.1144,2.113,2.1138,2.1046,2.1138,2.1137,2.1137,2.1137,2.1137,2.0532,2.0566,2.0611,2.0661,2.0695,2.0734,2.0772,2.0802,2.0849,2.0909,2.0924,2.0984,2.1032,2.1112,2.1144,2.1193,2.1188,2.1204,2.1208,2.1211,2.1212,2.1123,2.1204,2.1204,2.1204,2.1204,2.1204,0,2.0598,2.0627,2.0673,2.073,2.077,2.0774,2.0821,2.0855,2.0907,2.095,2.0996,2.1062,2.1118,2.1161,2.1219,2.125,2.1256,2.1264,2.1262,2.1269,2.1213,2.1198,2.1258,2.1258,2.1258,2.1258,2.1258,2.1258,2.0636,2.0695,2.0714,2.0791,2.0821,2.0878,2.0905,2.0942,2.0977,2.1049,2.1095,2.1122,2.1166,2.1227,2.128,2.1291,2.1312,2.1319,2.1332,2.1279,2.1273,2.1267,2.1253,2.1324,2.1324,2.1383,2.1384,2.1384]},{"header":{"parameterUnit":"m.s-1","parameterCategory":1,"la1":30.2991,"la2":30.254,"lo1":-89.0895,"lo2":-89.0444,"dy":0.0017,"dx":0.0017,"nx":28,"ny":28,"refTime":"2023-08-14T03:00:00:Z","depth":0,"parameterNumber":3,"parameterNumberName":"V-component_of_WINDS"},"data":[0,0,0,0,0,0,0,0,0,0,0,0,0,0,0,0,0,0,0,0,0,0,0,0,0,0,0,0,0,0,0,0,0,0,0,0,0,0,0,0,0,0,0,0,0,0,0,0,0,0,0,0,0,0,0,0,0,0,4.8011,4.8013,0,4.8141,4.8142,4.8144,4.8154,4.8152,4.8151,4.8149,4.8273,4.8277,4.8282,0,0,0,0,0,0,0,0,0,0,0,0,0,4.7759,4.7763,4.8011,4.8013,4.8014,4.8141,4.8143,4.8144,4.8154,4.8152,4.815,4.8149,4.8271,4.8277,4.8282,0,0,0,0,0,0,0,0,0,0,0,0,0,4.7876,4.7765,4.8011,4.8035,4.8038,4.814,4.8143,4.8145,4.8154,4.8152,4.815,4.8148,4.827,4.8276,4.8283,4.8368,0,0,4.8304,4.8307,0,0,0,0,0,0,0,0,4.7869,4.7885,4.8029,4.8033,4.8037,4.8129,4.8099,4.8219,4.8155,4.811,4.8149,4.8147,4.8226,4.8236,4.8265,4.8374,4.8379,4.8305,4.8309,4.8312,4.8314,0,0,0,0,0,0,0,4.7861,4.788,4.8062,4.8031,4.8036,4.8034,4.8049,4.8122,4.8178,4.8114,4.8115,4.813,4.8228,4.8258,4.8268,4.8381,4.8305,4.8311,4.8315,4.8318,4.8559,4.8561,0,0,0,0,0,0,4.785,4.7873,4.8058,4.8066,4.7947,4.8041,4.8057,4.8102,4.8177,4.8187,4.8132,4.813,4.8248,4.826,4.8272,4.8373,4.8312,4.8318,4.8322,4.8556,4.8559,4.8562,0,0,0,0,0,0,4.7845,4.7867,4.8053,4.797,4.7994,4.8048,4.8097,4.8105,4.8136,4.8191,4.82,4.8154,4.8247,4.8263,4.8343,4.8377,4.8321,4.8328,4.8554,4.8557,4.856,4.8577,0,0,0,0,0,0,4.7837,4.7865,4.7901,4.7971,4.7998,4.8125,4.81,4.8109,4.8149,4.8148,4.8214,4.8223,4.8246,4.8333,4.835,4.8386,4.8333,4.8551,4.8555,4.8559,4.8573,4.858,4.8586,0,0,0,0,0,4.7828,4.7899,4.7903,4.7925,4.8045,4.8127,4.8142,4.8171,4.8152,4.8186,4.8221,4.8221,4.8371,4.8341,4.8361,4.8399,4.8549,4.8554,4.8559,4.857,4.8579,4.8586,0,0,0,0,0,0,4.7829,4.7909,4.7913,4.801,4.8062,4.8129,4.8173,4.8179,4.8236,4.8232,4.8261,4.8276,4.8354,4.8385,4.835,4.8482,4.8457,4.8467,4.8459,4.8468,4.8474,4.8464,4.8339,0,0,0,0,0,4.7841,4.7905,4.797,4.8048,4.8074,4.8119,4.8156,4.8173,4.8227,4.8249,4.8289,4.8339,4.8396,4.8434,4.8491,4.8578,4.8589,4.8613,4.8619,4.8625,4.8631,4.8675,4.8685,4.8578,4.8578,4.8578,0,0,4.7865,4.7916,4.7955,4.8049,4.8092,4.8153,4.8138,4.8205,4.8249,4.8258,4.8336,4.8367,4.8424,4.8507,4.8546,4.8535,4.8663,4.8631,4.8635,4.8639,4.8681,4.8691,4.87,4.8582,4.8581,4.8581,0,0,4.794,4.7987,4.8056,4.8099,4.8164,4.8193,4.8209,4.8275,4.8296,4.8376,4.8383,4.8434,4.8535,4.8573,4.8606,4.8691,4.8692,4.8709,4.8741,4.8783,4.8792,4.8799,4.8825,4.8835,4.8716,4.8716,4.8716,0,4.796,4.8057,4.8089,4.8156,4.8194,4.8208,4.8274,4.8313,4.8392,4.8416,4.8404,4.8528,4.8567,4.8657,4.8677,4.8705,4.872,4.8701,4.8789,4.8796,4.8804,4.8829,4.8839,4.8717,4.8717,4.8717,4.8717,0,4.8077,4.8143,4.819,4.8268,4.8313,4.8379,4.8416,4.8456,4.8468,4.8497,4.8575,4.8622,4.8687,4.871,4.8722,4.88,4.8791,4.8783,4.8759,4.8815,4.8839,4.8849,4.8719,4.8719,4.8718,4.8718,0,0,4.8157,4.825,4.8266,4.83,4.8371,4.8421,4.8485,4.8551,4.8582,4.8635,4.8687,4.877,4.8762,4.8799,4.8815,4.8853,4.8912,4.884,4.8841,4.8848,4.8995,4.8999,4.901,4.8913,4.8915,4.8917,4.8989,0,4.8236,4.8355,4.8384,4.8483,4.8541,4.8553,4.8608,4.8655,4.8682,4.8733,4.8761,4.8819,4.8807,4.8828,4.8866,4.8897,4.8941,4.8892,4.8956,4.8958,4.894,4.9024,4.9028,4.9095,4.8999,4.9001,4.9002,0,4.8346,4.8403,4.8509,4.8569,4.8595,4.8644,4.8704,4.8754,4.8805,4.8822,4.8862,4.8874,4.8936,4.8909,4.8992,4.8958,4.8986,4.9004,4.9007,4.9013,4.8982,4.9027,4.9117,4.9126,4.9018,4.9017,4.9016,0,4.8389,4.8492,4.8567,4.8596,4.8669,4.8703,4.8734,4.8784,4.882,4.8871,4.8894,4.8951,4.8981,4.9023,4.9047,4.9027,4.9126,4.9103,4.9138,4.9137,4.9157,4.9155,4.9249,4.918,4.9179,4.9179,4.9179,0,4.8474,4.8537,4.8587,4.8633,4.8702,4.8733,4.8799,4.8829,4.8873,4.8922,4.8935,4.8979,4.901,4.9058,4.9077,4.914,4.9154,4.9166,4.917,4.9164,4.9162,4.9181,4.9176,4.9182,4.9181,4.9181,4.918,0,4.8532,4.857,4.8652,4.8714,4.8731,4.8779,4.883,4.8872,4.89,4.8961,4.8976,4.9018,4.9074,4.9103,4.9173,4.9186,4.9255,4.9258,4.9239,4.924,4.9272,4.9267,4.938,4.9394,4.9317,4.9318,4.9318,0,4.8583,4.8632,4.8699,4.8734,4.8767,4.8823,4.886,4.889,4.8927,4.8988,4.9021,4.9079,4.9127,4.9215,4.9249,4.9301,4.9303,4.9338,4.931,4.9301,4.9299,4.9295,4.9298,4.9342,4.9343,4.9344,4.9344,0,4.8667,4.8683,4.8738,4.8798,4.8842,4.889,4.8938,4.8964,4.9001,4.9041,4.9101,4.9137,4.9209,4.9264,4.9318,4.9345,4.9349,4.9353,4.9363,4.9356,4.9342,4.9347,4.9249,4.935,4.9349,4.9349,4.9349,4.9348,4.8721,4.8764,4.8817,4.8876,4.8916,4.8959,4.9001,4.9034,4.9084,4.9147,4.916,4.9221,4.9266,4.934,4.9369,4.9414,4.9406,4.9422,4.9426,4.9428,4.9428,4.9337,4.9424,4.9424,4.9424,4.9424,4.9424,0,4.8803,4.8838,4.8892,4.8959,4.9004,4.9007,4.9059,4.9095,4.915,4.9193,4.924,4.9305,4.9358,4.9395,4.9448,4.9476,4.9479,4.9489,4.9486,4.9491,4.9434,4.9418,4.9485,4.9485,4.9485,4.9485,4.9485,4.9485,4.8851,4.8922,4.8943,4.9031,4.9064,4.9127,4.9155,4.9193,4.9228,4.9301,4.9346,4.9371,4.9411,4.9466,4.9513,4.9522,4.9539,4.9548,4.9557,4.9502,4.9496,4.9489,4.9475,4.9552,4.9553,4.961,4.961,4.9611]}]]